Flag for U.S.A. Weather past 2 weeks in Mobile, Alabama, U.S.A.

Now
79 °F

Clear.


Feels Like: 83 °F
Forecast: 76 / 91 °F
Wind: No wind

Location: Mobile Downtown Airport

Current Time: Jul 3, 2015 at 3:34:43 AM

Latest Report: Jul 3, 2015 at 2:53 AM


Visibility: 10 mi

Pressure: 30.06 "Hg

Humidity: 88%

Dew point: 75 °F

Location of MobileLocation

Historic Weather in Mobile — Graph

°F

Mobile temperature yesterday

Maximum temperature yesterday: 89 °F (at 3:53 PM)
Minimum temperature yesterday: 73 °F (at 12:53 AM)
Average temperature yesterday: 81 °F

Past Weeks' High & Low Weather Summary

 TemperatureHumidityPressure
High94 °F (Jun 22, 1:53 PM)97% (Jun 18, 5:53 AM)30.20 "Hg (Jun 18, 5:53 AM)
Low72 °F (Jun 22, 3:53 AM)46% (Jun 22, 1:53 PM)29.94 "Hg (Jun 27, 3:53 PM)
Average81 °F78%30.07 "Hg
* Reported Jun 18 1:53 AM — Jul 3 1:53 AM, Mobile, Weather by CustomWeather, © 2015

Note: Actual official high and low records may vary slightly from our data, if they occured in-between our weather recording intervals... More about our weather records

Advertising

Mobile weather history for previous 24 hours

 ConditionsComfort  
Time TempWeatherWind HumidityBarometerVisibility
1:53 AM
Fri, Jul 3
78 °FClear.3 mph90%30.06 "Hg10 mi
12:53 AM78 °FClear.No wind87%30.06 "Hg10 mi
11:53 PM
Thu, Jul 2
79 °FClear.3 mph84%30.05 "Hg10 mi
10:53 PM79 °FClear.5 mph82%30.05 "Hg10 mi
9:53 PM79 °FClear.5 mph84%30.05 "Hg10 mi
8:53 PM80 °FSunny.3 mph85%30.04 "Hg10 mi
7:53 PM82 °FSunny.5 mph79%30.04 "Hg10 mi
6:53 PM84 °FSunny.5 mph77%30.04 "Hg10 mi
5:53 PM87 °FPassing clouds.9 mph67%30.05 "Hg10 mi
4:53 PM87 °FSunny.6 mph67%30.05 "Hg10 mi
3:53 PM89 °FPassing clouds.7 mph63%30.05 "Hg10 mi
2:53 PM88 °FScattered clouds.9 mph67%30.06 "Hg10 mi
1:53 PM86 °FSunny.7 mph70%30.08 "Hg10 mi
12:53 PM84 °FSunny.6 mph70%30.10 "Hg10 mi
11:53 AM83 °FSunny.5 mph72%30.11 "Hg10 mi
10:53 AM82 °FBroken clouds.5 mph74%30.13 "Hg10 mi
9:53 AM82 °FPartly sunny.5 mph77%30.13 "Hg10 mi
8:53 AM80 °FOvercast.5 mph79%30.13 "Hg10 mi
7:53 AM78 °FSunny.5 mph82%30.10 "Hg10 mi
6:53 AM77 °FPassing clouds.6 mph90%30.08 "Hg10 mi
5:53 AM77 °FClear.No wind90%30.06 "Hg10 mi
4:53 AM75 °FClear.3 mph94%30.07 "Hg10 mi
3:53 AM73 °FClear.3 mph97%30.07 "Hg9 mi
Weather by CustomWeather, © 2015

See weather overviewHow to use our weather pages